Temp
-4 -4 -4 -4 -4 -4 -4 -4 -4 -3 -4 -6 -6 -6 -7 -7 -7 -5 -5 -6 -6 -6 -6 -5 -6 -6 -6 -6 -6 -6 -5 -4 -4 -4 -3 -4 -5 -4 -4 -4 -4 -4 -5 -5 -5 -5 -5 -5 -6 -6 -6 -6 -6 -6 -6 -5 -5 -4 -4 -4 -5 -5 -5
-4 -4 -4 -4 -4 -5 -5 -4 -4 -5 -6 -7 -7 -7 -7 -7 -6 -5 -5 -6 -6 -6 -5 -5 -5 -6 -6 -6 -6 -6 -5 -5 -4 -3 -4 -4 -4 -4 -4 -4 -4 -5 -5 -5 -5 -5 -5 -5 -6 -6 -6 -6 -6 -6 -6 -5 -5 -5 -4 -4 -5 -5 -5
-4 -5 -5 -4 -4 -5 -5 -5 -5 -6 -6 -7 -7 -7 -7 -6 -6 -6 -5 -5 -6 -6 -5 -5 -5 -6 -6 -6 -6 -6 -5 -5 -5 -4 -4 -5 -4 -4 -5 -5 -5 -5 -6 -6 -6 -5 -5 -5 -6 -6 -6 -6 -6 -6 -6 -6 -5 -5 -4 -4 -5 -5 -5
-5 -5 -4 -4 -4 -5 -5 -5 -5 -5 -6 -6 -6 -6 -6 -6 -6 -6 -6 -5 -6 -6 -5 -5 -5 -6 -6 -6 -6 -6 -6 -6 -5 -5 -5 -5 -4 -5 -5 -5 -5 -6 -6 -6 -6 -6 -6 -6 -6 -6 -6 -5 -6 -6 -6 -6 -5 -5 -5 -5 -5 -5 -5
-5 -4 -4 -4 -4 -4 -5 -5 -4 -4 -5 -6 -7 -6 -6 -6 -6 -5 -5 -5 -5 -5 -6 -6 -6 -5 -6 -6 -6 -6 -6 -6 -6 -6 -5 -5 -5 -5 -5 -5 -5 -6 -6 -6 -6 -6 -6 -6 -6 -6 -5 -5 -5 -6 -6 -6 -6 -6 -5 -5 -5 -5 -5
-5 -4 -4 -4 -4 -4 -4 -4 -4 -4 -4 -5 -6 -5 -5 -6 -6 -5 -5 -4 -4 -5 -6 -6 -5 -5 -5 -6 -6 -6 -6 -6 -6 -6 -6 -6 -6 -5 -5 -5 -5 -6 -6 -6 -6 -6 -6 -6 -6 -6 -6 -5 -5 -6 -6 -6 -6 -6 -6 -6 -5 -5 -5
-5 -5 -5 -5 -5 -4 -5 -5 -5 -5 -5 -5 -5 -5 -5 -7 -7 -6 -6 -5 -5 -5 -6 -6 -6 -5 -5 -6 -6 -6 -6 -6 -6 -6 -6 -6 -6 -6 -5 -5 -5 -6 -6 -6 -6 -6 -6 -6 -6 -6 -6 -6 -6 -6 -6 -6 -6 -6 -6 -6 -5 -5 -5
-5 -6 -6 -6 -6 -5 -5 -4 -4 -5 -5 -5 -5 -5 -6 -7 -7 -7 -7 -5 -4 -4 -5 -6 -6 -6 -6 -6 -6 -6 -6 -6 -6 -6 -6 -6 -6 -6 -6 -5 -5 -5 -6 -7 -7 -6 -6 -6 -6 -6 -6 -6 -6 -6 -6 -6 -6 -6 -6 -6 -6 -5 -5
-6 -6 -7 -7 -7 -6 -4 -4 -4 -5 -5 -6 -6 -5 -6 -7 -6 -7 -7 -5 -3 -3 -5 -5 -6 -6 -6 -6 -6 -6 -6 -6 -6 -6 -6 -6 -6 -6 -6 -6 -6 -6 -6 -7 -7 -7 -7 -6 -6 -6 -7 -7 -6 -6 -6 -6 -6 -6 -6 -6 -6 -6 -5
-5 -5 -6 -6 -7 -6 -4 -4 -4 -4 -5 -6 -6 -6 -6 -6 -5 -6 -7 -5 -4 -4 -5 -5 -6 -6 -6 -6 -6 -6 -6 -6 -6 -6 -6 -6 -6 -6 -6 -7 -6 -6 -6 -7 -7 -7 -7 -6 -6 -7 -7 -7 -7 -6 -6 -6 -6 -6 -6 -6 -6 -6 -6
-5 -5 -5 -6 -7 -7 -5 -4 -4 -5 -5 -5 -5 -6 -5 -5 -5 -6 -5 -5 -5 -6 -6 -6 -6 -6 -6 -6 -6 -6 -6 -6 -6 -6 -6 -6 -6 -6 -6 -6 -6 -6 -6 -7 -7 -7 -7 -6 -6 -7 -7 -7 -7 -7 -6 -6 -6 -6 -6 -6 -6 -6 -6
-7 -6 -6 -6 -7 -7 -6 -5 -5 -5 -5 -5 -5 -5 -5 -5 -6 -6 -4 -5 -6 -6 -6 -6 -6 -6 -6 -6 -6 -6 -6 -6 -6 -6 -6 -6 -6 -6 -6 -6 -6 -7 -7 -7 -7 -7 -7 -7 -6 -7 -7 -7 -7 -7 -7 -6 -6 -6 -5 -5 -6 -6 -6
-8 -7 -7 -7 -7 -7 -7 -7 -6 -6 -6 -6 -5 -5 -5 -5 -6 -5 -4 -5 -6 -6 -6 -6 -6 -6 -6 -6 -6 -6 -6 -6 -6 -6 -6 -6 -6 -6 -6 -6 -6 -7 -7 -7 -7 -7 -7 -7 -6 -7 -7 -6 -6 -7 -6 -6 -6 -6 -5 -5 -6 -6 -5
-9 -8 -8 -8 -8 -7 -7 -8 -8 -7 -7 -6 -5 -5 -5 -6 -6 -5 -5 -5 -6 -6 -6 -7 -6 -6 -6 -6 -7 -6 -6 -6 -6 -6 -6 -7 -7 -7 -6 -6 -7 -7 -7 -7 -7 -7 -7 -7 -6 -6 -6 -6 -6 -6 -6 -6 -6 -6 -5 -5 -6 -6 -5
-9 -8 -8 -8 -8 -8 -8 -8 -8 -8 -7 -7 -6 -6 -6 -7 -6 -5 -5 -6 -5 -5 -6 -7 -7 -6 -6 -7 -7 -7 -6 -6 -6 -7 -7 -7 -7 -7 -7 -7 -7 -7 -7 -7 -7 -7 -7 -7 -7 -7 -7 -6 -6 -6 -6 -6 -6 -6 -5 -5 -5 -6 -6
-9 -9 -9 -9 -9 -8 -8 -8 -8 -8 -8 -8 -8 -7 -7 -7 -6 -6 -5 -5 -5 -5 -6 -7 -7 -7 -6 -7 -7 -7 -7 -6 -6 -7 -7 -7 -7 -7 -7 -7 -7 -7 -7 -7 -7 -7 -7 -7 -7 -7 -7 -7 -6 -6 -6 -6 -6 -6 -5 -5 -5 -5 -6
-9 -10 -9 -9 -9 -9 -8 -7 -7 -8 -8 -8 -8 -8 -7 -7 -7 -7 -6 -5 -5 -6 -7 -7 -7 -7 -7 -6 -7 -7 -7 -7 -7 -7 -7 -7 -7 -7 -7 -7 -7 -7 -7 -7 -7 -7 -7 -7 -7 -7 -7 -7 -7 -6 -6 -6 -6 -6 -5 -5 -5 -5 -6
-10 -10 -10 -9 -10 -9 -7 -6 -7 -8 -8 -8 -8 -8 -8 -8 -8 -7 -6 -6 -6 -6 -7 -6 -7 -7 -7 -7 -7 -7 -7 -7 -7 -7 -7 -7 -7 -7 -7 -7 -7 -7 -7 -7 -7 -7 -6 -6 -6 -7 -7 -7 -6 -6 -6 -6 -6 -5 -5 -6 -5 -5 -5
-10 -10 -10 -10 -10 -9 -7 -7 -8 -8 -7 -8 -8 -8 -8 -8 -8 -8 -7 -7 -7 -7 -7 -7 -6 -7 -7 -7 -7 -7 -7 -7 -7 -7 -6 -7 -7 -7 -7 -8 -8 -7 -7 -6 -6 -7 -6 -6 -6 -7 -7 -6 -6 -6 -6 -6 -6 -5 -5 -6 -6 -5 -5
-10 -10 -10 -10 -10 -9 -9 -9 -9 -8 -8 -8 -8 -8 -8 -8 -8 -8 -8 -8 -8 -8 -7 -7 -7 -7 -7 -7 -7 -7 -7 -7 -8 -7 -7 -7 -7 -7 -8 -8 -8 -8 -8 -7 -7 -7 -7 -7 -7 -7 -7 -7 -6 -6 -6 -6 -6 -6 -5 -5 -6 -6 -5
-11 -10 -10 -10 -10 -9 -9 -9 -9 -9 -9 -8 -8 -8 -9 -8 -8 -8 -8 -8 -8 -8 -8 -7 -7 -7 -7 -8 -8 -8 -8 -7 -7 -8 -8 -7 -8 -7 -8 -8 -8 -8 -8 -8 -7 -7 -7 -7 -7 -7 -7 -7 -7 -7 -7 -6 -6 -6 -5 -5 -6 -6 -6
-11 -11 -10 -10 -10 -9 -9 -9 -9 -9 -9 -9 -8 -8 -8 -9 -8 -8 -8 -8 -8 -8 -8 -7 -7 -7 -7 -8 -8 -8 -8 -8 -7 -8 -7 -7 -7 -8 -8 -8 -8 -8 -8 -8 -7 -7 -7 -7 -7 -7 -7 -7 -7 -7 -7 -6 -6 -6 -5 -5 -5 -6 -6
-11 -11 -11 -10 -10 -10 -9 -9 -9 -10 -9 -9 -8 -8 -8 -8 -8 -8 -8 -8 -8 -8 -8 -8 -7 -6 -7 -7 -7 -7 -8 -8 -8 -8 -7 -7 -8 -8 -8 -8 -8 -8 -8 -8 -7 -7 -7 -7 -7 -7 -7 -7 -7 -7 -6 -6 -6 -5 -5 -4 -5 -5 -6
-12 -11 -11 -11 -11 -10 -10 -10 -10 -10 -10 -9 -8 -8 -8 -8 -8 -8 -7 -7 -7 -7 -7 -8 -8 -7 -7 -7 -7 -8 -8 -8 -8 -8 -8 -8 -8 -8 -8 -8 -8 -8 -8 -8 -8 -8 -7 -7 -7 -7 -7 -7 -7 -7 -6 -6 -5 -5 -5 -4 -4 -5 -6
-12 -12 -11 -11 -11 -11 -11 -11 -11 -10 -10 -9 -9 -9 -8 -8 -8 -8 -8 -7 -7 -7 -7 -7 -8 -8 -8 -7 -8 -8 -8 -8 -8 -8 -8 -8 -8 -8 -8 -8 -8 -8 -8 -8 -8 -8 -8 -7 -6 -7 -7 -7 -7 -7 -6 -6 -5 -5 -5 -5 -5 -6 -6
-12 -12 -11 -11 -11 -11 -11 -11 -11 -10 -10 -9 -9 -9 -8 -8 -7 -8 -8 -8 -8 -8 -7 -7 -8 -8 -8 -7 -7 -8 -8 -8 -8 -8 -8 -8 -8 -8 -8 -8 -8 -8 -8 -8 -8 -9 -8 -7 -6 -7 -7 -7 -6 -6 -6 -6 -6 -5 -6 -6 -6 -6 -6
-12 -12 -12 -11 -11 -11 -11 -11 -11 -10 -10 -9 -9 -8 -8 -7 -7 -8 -8 -8 -8 -8 -8 -8 -8 -8 -8 -8 -7 -8 -8 -8 -8 -8 -8 -8 -8 -8 -8 -8 -8 -8 -8 -9 -8 -8 -8 -8 -7 -7 -7 -7 -7 -7 -7 -7 -7 -7 -7 -7 -7 -7 -7
-12 -12 -12 -11 -11 -11 -11 -11 -10 -10 -10 -9 -9 -8 -8 -8 -8 -8 -8 -8 -8 -8 -8 -8 -8 -8 -8 -8 -8 -8 -8 -8 -8 -8 -8 -8 -8 -8 -8 -8 -8 -8 -9 -9 -9 -8 -8 -8 -8 -7 -7 -7 -7 -7 -7 -8 -8 -8 -8 -8 -8 -7 -7
-12 -12 -11 -11 -11 -11 -10 -10 -10 -10 -9 -9 -9 -8 -8 -8 -8 -8 -8 -8 -8 -8 -8 -8 -8 -8 -8 -8 -8 -8 -8 -8 -9 -8 -8 -8 -9 -9 -9 -8 -8 -9 -9 -9 -9 -9 -8 -8 -8 -8 -8 -7 -7 -7 -7 -8 -8 -8 -8 -8 -8 -8 -8
-12 -12 -11 -11 -11 -10 -10 -10 -10 -9 -9 -9 -9 -9 -9 -9 -9 -8 -9 -9 -8 -8 -8 -8 -8 -8 -8 -8 -8 -8 -8 -8 -8 -9 -9 -9 -9 -9 -9 -8 -8 -8 -8 -9 -9 -9 -9 -9 -9 -9 -9 -9 -8 -7 -7 -8 -8 -8 -8 -8 -7 -7 -7
-12 -12 -11 -11 -11 -11 -10 -10 -9 -9 -9 -9 -9 -9 -9 -9 -9 -9 -9 -9 -9 -8 -8 -8 -8 -8 -8 -8 -8 -8 -8 -8 -8 -8 -9 -9 -9 -8 -8 -8 -8 -8 -8 -8 -8 -8 -9 -9 -9 -9 -9 -9 -9 -8 -7 -7 -7 -8 -7 -7 -6 -6 -6
-12 -12 -11 -11 -11 -11 -10 -10 -9 -9 -9 -9 -9 -9 -9 -9 -10 -9 -9 -9 -9 -9 -9 -9 -8 -8 -8 -8 -8 -8 -8 -8 -8 -8 -9 -9 -8 -8 -8 -8 -8 -8 -8 -8 -8 -8 -9 -9 -9 -9 -9 -9 -9 -9 -7 -7 -7 -7 -7 -7 -6 -6 -6
-13 -12 -12 -11 -11 -10 -11 -11 -10 -9 -9 -10 -10 -9 -9 -10 -10 -10 -10 -9 -9 -9 -9 -9 -8 -8 -8 -8 -8 -8 -8 -8 -8 -8 -9 -8 -8 -8 -8 -8 -8 -8 -8 -8 -8 -8 -9 -9 -9 -9 -9 -9 -9 -9 -8 -7 -7 -6 -7 -7 -7 -7 -7
-13 -12 -12 -12 -11 -11 -11 -11 -10 -10 -10 -10 -10 -10 -10 -10 -10 -10 -10 -10 -10 -9 -9 -9 -8 -8 -9 -9 -8 -8 -8 -8 -8 -8 -8 -8 -8 -8 -8 -8 -8 -8 -8 -8 -8 -8 -9 -9 -9 -9 -8 -8 -8 -8 -8 -7 -7 -6 -6 -6 -7 -8 -8
-12 -12 -12 -12 -12 -12 -11 -11 -10 -10 -10 -10 -10 -11 -10 -10 -10 -10 -10 -10 -10 -9 -9 -9 -9 -9 -9 -9 -9 -8 -8 -8 -8 -8 -8 -8 -8 -8 -8 -8 -8 -8 -8 -8 -8 -8 -8 -9 -8 -8 -8 -8 -8 -8 -7 -7 -7 -7 -7 -7 -7 -8 -8
-12 -12 -13 -13 -12 -12 -11 -11 -11 -11 -11 -11 -10 -10 -10 -10 -10 -10 -10 -10 -10 -9 -9 -9 -9 -9 -9 -9 -9 -8 -8 -8 -8 -8 -8 -8 -8 -8 -8 -8 -8 -8 -8 -8 -8 -8 -8 -8 -8 -8 -8 -8 -8 -7 -7 -7 -7 -7 -7 -7 -8 -8 -8
-13 -13 -13 -13 -12 -11 -11 -11 -11 -11 -11 -11 -11 -11 -11 -10 -10 -10 -10 -10 -10 -10 -9 -9 -9 -9 -9 -9 -9 -8 -8 -8 -8 -8 -8 -8 -8 -8 -8 -8 -8 -8 -8 -8 -8 -8 -8 -8 -8 -8 -8 -8 -8 -8 -8 -8 -8 -8 -9 -9 -9 -9 -9
Height
5834 5835 5838 5840 5839 5840 5842 5842 5842 5844 5849 5853 5854 5854 5858 5861 5859 5857 5861 5863 5865 5867 5868 5871 5874 5873 5874 5875 5875 5876 5877 5878 5880 5881 5883 5886 5887 5889 5890 5891 5892 5894 5895 5896 5897 5898 5898 5899 5900 5901 5902 5904 5904 5904 5905 5906 5906 5907 5908 5908 5908 5908 5908
5830 5832 5835 5836 5836 5837 5838 5837 5840 5847 5850 5850 5851 5853 5855 5856 5852 5852 5856 5859 5861 5863 5863 5867 5871 5871 5872 5873 5873 5874 5874 5874 5875 5878 5881 5883 5885 5887 5888 5888 5890 5891 5892 5893 5894 5895 5896 5897 5898 5898 5899 5900 5902 5902 5902 5903 5904 5904 5905 5905 5905 5905 5905
5826 5828 5829 5830 5831 5832 5834 5836 5840 5844 5843 5842 5844 5846 5848 5849 5847 5847 5852 5854 5856 5857 5859 5864 5868 5869 5869 5871 5871 5871 5872 5871 5871 5875 5878 5879 5881 5884 5885 5886 5888 5889 5890 5890 5891 5892 5893 5894 5895 5895 5896 5897 5898 5899 5900 5901 5901 5902 5902 5902 5903 5902 5902
5821 5822 5821 5821 5824 5828 5831 5834 5835 5836 5836 5837 5838 5839 5842 5844 5843 5844 5848 5850 5850 5852 5855 5861 5864 5866 5868 5869 5868 5868 5869 5870 5869 5871 5875 5876 5878 5881 5883 5885 5886 5888 5888 5888 5888 5889 5890 5891 5892 5893 5894 5895 5896 5897 5897 5898 5899 5899 5899 5899 5899 5899 5899
5813 5812 5813 5816 5820 5824 5827 5828 5829 5830 5831 5833 5836 5836 5836 5839 5839 5840 5841 5842 5844 5849 5853 5857 5860 5863 5865 5866 5866 5866 5867 5868 5868 5868 5871 5873 5875 5878 5881 5883 5884 5886 5886 5886 5886 5887 5887 5888 5890 5891 5892 5893 5894 5894 5895 5896 5896 5896 5896 5896 5896 5897 5897
5806 5806 5809 5812 5815 5819 5823 5825 5826 5828 5828 5830 5832 5830 5830 5833 5835 5836 5838 5837 5840 5847 5851 5854 5857 5860 5862 5864 5865 5865 5865 5866 5865 5866 5867 5869 5871 5874 5878 5880 5882 5883 5883 5883 5884 5885 5886 5887 5888 5890 5891 5891 5891 5892 5893 5893 5894 5894 5893 5893 5893 5894 5894
5803 5804 5806 5807 5808 5813 5818 5820 5823 5826 5825 5824 5824 5824 5827 5831 5832 5835 5837 5835 5837 5844 5849 5852 5855 5858 5859 5861 5862 5863 5864 5864 5863 5863 5864 5866 5867 5870 5873 5876 5878 5879 5880 5881 5882 5883 5884 5885 5886 5887 5888 5889 5889 5890 5891 5891 5892 5891 5891 5890 5891 5892 5892
5800 5802 5803 5802 5802 5804 5808 5811 5816 5819 5819 5819 5821 5823 5827 5830 5830 5831 5833 5831 5832 5839 5845 5850 5853 5854 5857 5858 5859 5860 5861 5862 5862 5861 5862 5863 5865 5867 5869 5871 5874 5876 5878 5878 5880 5881 5882 5882 5884 5885 5886 5887 5887 5888 5889 5890 5890 5889 5888 5888 5888 5889 5890
5790 5794 5795 5794 5794 5795 5798 5802 5808 5813 5815 5817 5819 5821 5824 5824 5824 5826 5827 5825 5829 5834 5840 5846 5849 5851 5854 5855 5856 5857 5858 5859 5861 5860 5860 5860 5862 5864 5866 5868 5870 5872 5874 5876 5877 5879 5880 5880 5881 5882 5883 5884 5885 5886 5887 5887 5887 5886 5886 5886 5886 5887 5888
5778 5781 5784 5785 5787 5789 5792 5796 5801 5806 5811 5813 5816 5818 5819 5817 5818 5822 5822 5821 5826 5831 5835 5839 5844 5847 5849 5851 5853 5854 5854 5855 5857 5857 5856 5857 5859 5862 5863 5864 5866 5869 5871 5873 5874 5875 5876 5877 5878 5879 5880 5882 5883 5884 5885 5885 5885 5884 5883 5884 5884 5885 5886
5773 5778 5783 5786 5787 5786 5788 5791 5795 5800 5805 5809 5812 5813 5812 5812 5814 5818 5818 5819 5824 5828 5831 5834 5838 5842 5845 5847 5849 5851 5851 5851 5853 5853 5853 5854 5855 5858 5859 5860 5862 5866 5869 5870 5870 5871 5872 5874 5875 5876 5877 5879 5880 5881 5882 5882 5882 5881 5881 5882 5882 5882 5883
5768 5776 5781 5785 5786 5784 5784 5787 5791 5794 5798 5803 5806 5805 5806 5810 5812 5812 5815 5819 5821 5825 5830 5832 5835 5839 5841 5843 5846 5848 5848 5847 5848 5849 5850 5851 5852 5854 5855 5856 5859 5863 5865 5865 5866 5867 5869 5870 5872 5872 5873 5875 5877 5878 5878 5879 5879 5878 5879 5879 5880 5879 5880
5761 5768 5774 5778 5781 5783 5783 5784 5786 5788 5790 5795 5798 5800 5804 5808 5808 5808 5813 5818 5818 5821 5827 5830 5833 5836 5838 5840 5843 5845 5845 5844 5844 5845 5846 5848 5849 5850 5851 5852 5855 5858 5859 5860 5861 5863 5865 5867 5868 5869 5870 5872 5873 5874 5875 5876 5876 5876 5876 5877 5877 5877 5878
5754 5760 5765 5769 5773 5778 5781 5781 5781 5783 5785 5788 5792 5796 5800 5802 5803 5806 5811 5814 5815 5818 5821 5826 5831 5833 5834 5836 5838 5841 5842 5841 5840 5841 5843 5845 5846 5847 5849 5850 5851 5853 5855 5856 5857 5859 5861 5863 5864 5865 5866 5868 5870 5871 5872 5873 5873 5873 5873 5875 5875 5874 5875
5747 5750 5756 5761 5764 5770 5775 5777 5777 5778 5780 5783 5786 5790 5794 5797 5799 5802 5806 5808 5810 5813 5815 5820 5826 5829 5830 5832 5833 5835 5838 5838 5837 5838 5840 5841 5842 5843 5845 5847 5848 5850 5851 5853 5854 5856 5857 5859 5861 5862 5862 5864 5866 5867 5868 5869 5870 5870 5870 5872 5872 5871 5872
5739 5743 5748 5753 5758 5764 5767 5769 5771 5773 5776 5780 5783 5785 5788 5791 5793 5796 5799 5801 5804 5809 5812 5814 5819 5823 5826 5827 5828 5830 5833 5835 5835 5834 5834 5836 5838 5840 5842 5845 5846 5847 5849 5851 5852 5853 5854 5856 5857 5858 5859 5860 5861 5862 5864 5866 5867 5867 5867 5868 5869 5869 5869
5733 5738 5744 5749 5755 5757 5754 5756 5762 5768 5773 5777 5780 5782 5784 5785 5788 5791 5793 5796 5800 5805 5808 5810 5812 5815 5819 5822 5824 5825 5827 5831 5833 5832 5831 5832 5834 5836 5839 5841 5843 5844 5846 5847 5847 5849 5851 5852 5853 5854 5855 5856 5856 5858 5860 5862 5863 5863 5863 5864 5865 5865 5865
5727 5735 5741 5745 5746 5744 5743 5750 5759 5765 5768 5772 5776 5779 5782 5782 5784 5787 5790 5793 5797 5800 5802 5805 5807 5808 5812 5817 5820 5821 5823 5826 5828 5830 5831 5830 5829 5831 5833 5836 5839 5840 5841 5842 5843 5846 5847 5848 5850 5851 5851 5852 5853 5854 5856 5857 5859 5860 5860 5860 5861 5862 5862
5721 5729 5734 5735 5735 5736 5741 5751 5758 5761 5764 5767 5770 5775 5779 5781 5781 5782 5785 5790 5793 5795 5795 5797 5799 5801 5803 5808 5812 5816 5819 5820 5822 5825 5828 5828 5828 5827 5828 5830 5833 5834 5835 5837 5840 5842 5843 5844 5846 5847 5847 5848 5849 5851 5852 5853 5854 5855 5856 5856 5856 5857 5858
5712 5719 5723 5724 5727 5733 5739 5745 5751 5756 5760 5762 5764 5768 5773 5774 5774 5775 5779 5782 5784 5786 5787 5789 5791 5794 5797 5799 5804 5809 5812 5815 5818 5820 5823 5825 5826 5826 5825 5825 5827 5828 5830 5832 5834 5836 5838 5839 5841 5842 5843 5844 5845 5846 5847 5848 5848 5849 5850 5851 5851 5852 5854
5702 5710 5715 5718 5723 5728 5733 5738 5744 5748 5751 5754 5758 5763 5765 5765 5766 5769 5772 5774 5776 5778 5780 5784 5787 5790 5794 5797 5800 5803 5806 5808 5811 5814 5816 5819 5820 5821 5822 5822 5822 5823 5824 5826 5828 5829 5832 5834 5835 5837 5838 5839 5840 5841 5842 5842 5843 5843 5844 5845 5846 5847 5849
5694 5702 5709 5715 5719 5722 5729 5734 5737 5740 5743 5746 5751 5757 5758 5758 5761 5764 5766 5768 5771 5773 5775 5780 5784 5787 5790 5793 5795 5798 5799 5800 5802 5804 5806 5809 5812 5814 5816 5818 5818 5818 5819 5821 5822 5823 5824 5826 5829 5831 5833 5834 5834 5835 5836 5836 5837 5837 5838 5839 5840 5842 5843
5688 5696 5703 5709 5713 5718 5725 5730 5732 5736 5738 5741 5747 5752 5752 5752 5755 5759 5760 5763 5766 5769 5772 5775 5780 5782 5785 5786 5789 5791 5792 5793 5794 5795 5797 5800 5803 5806 5809 5811 5813 5813 5814 5816 5818 5818 5819 5821 5824 5826 5827 5828 5828 5828 5829 5830 5831 5831 5832 5833 5835 5836 5837
5683 5691 5698 5704 5709 5714 5719 5723 5727 5731 5733 5736 5743 5745 5743 5745 5750 5754 5757 5760 5763 5766 5769 5771 5774 5777 5779 5780 5782 5784 5786 5789 5790 5791 5792 5794 5796 5799 5801 5803 5806 5808 5809 5810 5812 5813 5814 5817 5819 5820 5821 5821 5821 5822 5823 5824 5824 5826 5827 5828 5829 5830 5831
5679 5686 5693 5700 5704 5707 5711 5715 5719 5723 5727 5731 5735 5734 5734 5740 5746 5751 5755 5757 5759 5762 5766 5768 5770 5771 5773 5775 5776 5777 5780 5784 5786 5788 5790 5791 5792 5793 5794 5796 5799 5802 5803 5804 5806 5806 5808 5811 5814 5815 5815 5815 5815 5816 5817 5817 5818 5820 5821 5821 5821 5822 5823
5674 5681 5687 5694 5698 5701 5705 5709 5713 5717 5722 5724 5724 5724 5729 5736 5742 5747 5751 5753 5755 5758 5761 5764 5766 5767 5768 5769 5771 5773 5775 5777 5780 5783 5785 5787 5789 5789 5789 5791 5793 5796 5797 5799 5801 5801 5802 5805 5808 5810 5811 5811 5811 5810 5810 5810 5812 5814 5814 5813 5814 5816 5818
5669 5676 5681 5688 5693 5697 5701 5704 5708 5713 5716 5717 5717 5721 5727 5732 5737 5742 5745 5748 5751 5754 5756 5759 5761 5763 5764 5765 5766 5768 5770 5772 5774 5776 5778 5779 5781 5783 5785 5786 5788 5790 5791 5793 5795 5795 5795 5796 5798 5802 5805 5805 5804 5803 5803 5805 5807 5808 5808 5808 5810 5812 5814
5666 5671 5676 5682 5688 5693 5696 5699 5703 5706 5709 5712 5715 5719 5723 5727 5730 5734 5738 5743 5747 5749 5751 5753 5755 5756 5757 5758 5759 5762 5765 5767 5769 5770 5771 5772 5774 5776 5778 5780 5782 5783 5785 5787 5788 5788 5788 5787 5788 5791 5793 5793 5793 5795 5797 5800 5802 5803 5804 5806 5806 5807 5808
5662 5668 5673 5678 5682 5686 5690 5694 5696 5700 5704 5708 5711 5714 5718 5722 5726 5730 5733 5738 5742 5744 5745 5746 5748 5749 5750 5751 5753 5755 5759 5762 5763 5764 5765 5766 5768 5771 5772 5773 5775 5777 5778 5780 5782 5783 5782 5781 5781 5783 5782 5782 5785 5788 5789 5791 5793 5795 5796 5798 5799 5799 5800
5660 5667 5672 5676 5680 5683 5686 5688 5692 5696 5700 5703 5705 5709 5713 5718 5722 5726 5729 5732 5735 5737 5738 5740 5742 5744 5744 5745 5747 5749 5752 5755 5757 5758 5759 5760 5763 5765 5767 5768 5770 5771 5772 5773 5775 5775 5774 5773 5774 5774 5773 5774 5778 5780 5780 5783 5784 5785 5787 5791 5792 5792 5792
5659 5665 5669 5672 5677 5682 5684 5685 5688 5692 5695 5697 5701 5706 5710 5713 5717 5720 5723 5726 5728 5730 5733 5735 5737 5739 5740 5741 5743 5744 5746 5748 5751 5752 5752 5754 5757 5760 5761 5763 5765 5766 5766 5767 5768 5767 5765 5765 5765 5765 5765 5767 5769 5769 5771 5776 5778 5777 5780 5786 5789 5791 5793
5656 5661 5665 5669 5674 5679 5681 5680 5682 5685 5688 5692 5697 5702 5706 5709 5711 5714 5717 5720 5722 5725 5727 5728 5730 5732 5734 5736 5737 5738 5740 5743 5745 5746 5747 5749 5752 5753 5755 5757 5759 5760 5761 5761 5762 5761 5760 5760 5759 5758 5759 5761 5762 5761 5762 5766 5768 5769 5772 5778 5784 5790 5793
5654 5659 5662 5666 5669 5671 5672 5673 5675 5680 5685 5689 5694 5698 5701 5703 5706 5709 5711 5714 5716 5719 5721 5722 5724 5727 5728 5730 5731 5732 5735 5738 5740 5741 5743 5745 5746 5747 5748 5750 5752 5753 5753 5754 5755 5756 5754 5753 5752 5751 5752 5754 5757 5757 5756 5757 5760 5763 5765 5770 5778 5784 5785
5653 5656 5658 5661 5664 5666 5667 5668 5673 5679 5683 5686 5690 5693 5695 5697 5699 5703 5705 5708 5711 5714 5716 5718 5720 5721 5723 5724 5725 5727 5730 5732 5734 5735 5737 5739 5740 5740 5742 5743 5744 5745 5746 5746 5747 5747 5745 5744 5743 5743 5744 5747 5749 5751 5751 5753 5755 5758 5762 5766 5771 5774 5775
5650 5652 5654 5658 5662 5665 5666 5669 5673 5677 5679 5682 5685 5688 5690 5693 5695 5698 5701 5704 5706 5709 5711 5713 5714 5716 5717 5718 5720 5722 5725 5727 5729 5730 5731 5732 5733 5734 5735 5735 5736 5737 5738 5739 5739 5738 5737 5737 5736 5734 5735 5739 5742 5743 5745 5748 5750 5752 5757 5760 5761 5762 5765
5646 5649 5651 5655 5661 5664 5665 5668 5671 5672 5674 5677 5680 5684 5688 5690 5692 5695 5697 5699 5701 5704 5705 5707 5709 5710 5712 5713 5715 5718 5720 5722 5723 5725 5726 5726 5727 5727 5728 5728 5729 5729 5730 5730 5731 5730 5730 5731 5730 5728 5728 5731 5734 5737 5740 5743 5743 5744 5747 5750 5751 5754 5759
5641 5645 5646 5651 5658 5660 5660 5662 5666 5668 5669 5672 5675 5680 5684 5687 5689 5691 5693 5695 5697 5699 5700 5702 5704 5706 5707 5708 5710 5713 5715 5716 5718 5719 5720 5720 5720 5720 5721 5721 5719 5718 5720 5722 5723 5723 5723 5724 5724 5723 5722 5723 5726 5731 5734 5736 5737 5738 5741 5743 5746 5751 5755
Wind_Speed
28 28 25 25 28 30 29 30 31 27 29 37 43 44 40 35 39 43 39 36 35 33 33 30 26 27 29 28 28 30 31 30 30 31 27 26 30 29 25 24 22 19 20 22 23 25 26 25 22 20 21 22 22 24 25 25 25 26 25 23 22 21 21
30 29 28 28 30 31 32 33 29 23 27 37 42 44 41 38 42 44 40 39 39 39 38 31 25 26 27 27 28 31 31 31 32 31 25 25 29 27 23 23 22 19 19 23 24 25 27 26 23 22 24 23 22 23 24 24 25 25 25 25 23 22 22
33 30 31 33 34 33 33 32 28 26 31 37 42 45 43 43 47 47 42 40 39 40 41 33 24 23 25 27 29 29 27 28 30 28 24 27 28 23 18 20 20 18 19 23 24 24 25 26 25 24 26 24 22 22 23 23 23 23 24 23 22 21 21
35 36 38 40 38 36 34 32 31 32 34 37 41 42 40 41 46 47 44 43 42 41 38 30 23 22 23 25 27 26 23 22 27 26 22 24 27 22 17 16 17 18 21 23 23 20 21 24 26 26 27 26 23 22 23 23 22 21 21 20 19 19 18
38 42 45 43 40 38 36 35 36 36 37 37 39 40 40 40 43 45 46 46 45 43 38 32 29 26 24 24 25 25 24 22 26 27 21 21 25 23 21 20 18 18 19 20 20 19 21 24 26 26 27 27 26 25 24 22 20 19 17 16 16 15 15
43 45 44 43 41 38 36 35 36 36 37 37 38 40 40 39 41 42 43 45 43 40 37 33 32 29 26 25 25 26 28 28 29 29 25 24 25 24 23 23 20 17 17 18 18 20 24 26 25 25 27 29 28 27 25 22 19 17 15 14 13 12 12
43 42 40 42 45 42 37 36 36 35 38 41 41 41 39 38 39 39 40 43 41 38 34 25 21 23 24 26 27 28 29 29 30 32 30 30 30 27 25 24 21 18 17 19 19 18 21 23 24 24 25 27 27 27 25 22 18 15 13 13 11 10 9
43 41 39 39 44 46 44 42 40 38 40 43 43 41 37 36 39 39 41 41 36 33 33 26 18 16 21 27 26 27 29 28 28 31 33 35 37 34 30 25 22 21 20 21 21 20 20 22 23 23 23 25 26 26 26 23 19 16 14 12 10 8 8
48 45 42 40 43 49 50 47 44 41 41 42 43 42 38 37 41 41 42 42 34 29 30 31 28 22 22 28 29 27 28 28 27 29 32 34 35 35 32 26 24 25 25 23 23 23 23 22 23 23 23 24 25 26 26 24 21 19 16 13 10 9 9
56 54 51 50 48 51 53 51 46 43 42 41 42 44 43 43 43 42 43 44 37 29 28 28 32 33 29 30 32 28 26 27 27 26 28 29 27 27 29 30 30 30 27 24 25 27 28 26 25 27 26 25 26 27 26 24 23 21 18 14 12 11 11
57 54 52 50 47 48 52 52 48 44 42 40 40 44 46 46 45 43 43 43 37 30 27 24 27 34 35 35 36 33 27 25 27 27 27 26 24 25 29 34 35 31 27 27 29 30 31 30 28 30 29 26 27 28 27 25 25 24 21 16 13 13 13
54 51 48 47 47 48 50 51 49 47 45 41 40 44 45 45 47 47 43 40 36 31 27 24 22 25 30 33 36 37 33 28 27 28 27 26 26 28 32 37 36 31 27 29 30 31 33 32 31 32 31 28 27 29 29 28 28 27 24 18 14 14 14
54 50 46 47 50 49 45 44 46 49 48 45 42 43 42 42 48 48 43 40 40 35 31 31 27 24 26 29 30 33 36 34 32 31 27 27 30 31 31 31 32 30 29 30 31 32 34 33 32 33 33 31 29 30 30 30 30 30 27 20 15 15 15
55 51 48 48 49 48 42 40 44 47 48 48 46 43 40 40 44 44 42 44 45 40 37 35 32 29 29 29 30 32 35 37 37 33 28 28 32 34 31 29 30 31 31 32 33 34 35 35 35 36 36 35 34 33 33 32 31 32 29 22 17 16 16
54 55 54 51 50 49 45 39 40 44 46 46 45 42 39 39 40 40 41 44 46 44 42 37 34 34 31 28 31 35 37 39 37 31 28 32 35 35 33 32 32 34 34 35 36 37 38 39 39 39 39 38 37 37 38 37 35 35 33 25 19 18 17
56 56 52 50 49 50 51 47 41 40 40 38 38 39 39 40 41 40 40 42 42 43 45 41 38 39 38 34 33 35 37 41 42 36 32 35 39 38 38 37 35 35 37 38 41 43 43 43 42 41 39 38 38 39 38 37 37 37 35 28 21 19 19
61 54 42 39 42 47 56 59 51 40 34 33 32 33 35 38 39 38 40 43 41 39 43 47 47 46 46 43 41 41 40 42 46 44 37 36 38 37 39 43 43 43 44 46 49 48 45 44 43 40 38 38 38 37 35 36 38 37 35 30 23 21 21
62 53 39 34 40 47 57 62 55 46 39 34 33 34 33 33 34 34 35 37 39 38 40 44 48 50 51 49 47 47 45 44 46 48 43 40 37 31 29 35 41 45 47 49 49 45 42 42 42 39 38 37 37 36 36 36 37 36 34 31 26 22 23
63 56 46 41 45 49 49 48 49 50 47 39 35 37 38 34 32 32 29 26 29 36 40 42 44 46 50 53 53 52 51 48 47 49 48 45 42 35 31 33 38 42 47 48 45 42 39 38 38 38 39 38 37 37 37 37 36 34 31 29 28 25 25
65 61 56 51 53 52 43 37 42 47 48 46 41 39 40 40 38 34 30 28 29 34 39 42 42 43 48 53 53 52 54 55 51 49 49 47 46 44 41 41 42 43 46 48 48 47 44 39 36 37 40 40 39 37 37 36 36 34 31 30 29 28 27
67 66 61 57 57 54 46 40 42 44 47 51 49 45 42 42 42 39 33 33 34 35 38 40 40 40 44 48 49 47 49 53 53 52 50 48 49 49 48 48 48 47 48 50 51 51 49 44 41 40 40 41 41 38 37 37 38 36 34 32 30 30 29
65 67 63 59 58 56 50 45 46 46 49 53 54 52 49 45 44 44 40 39 39 37 38 39 39 39 39 43 46 46 45 48 51 53 54 52 51 51 52 52 53 53 54 55 54 53 51 47 44 42 42 44 44 41 39 40 40 38 37 34 32 31 31
59 64 62 59 60 59 53 48 47 45 45 49 51 52 54 52 49 49 49 49 47 45 41 39 39 39 39 41 43 44 46 51 53 55 57 57 54 52 52 53 54 54 53 51 50 51 49 44 41 41 43 46 47 45 43 43 41 40 39 36 34 34 34
55 60 62 60 57 57 54 50 49 45 42 45 47 50 56 58 55 53 53 53 53 50 45 42 40 40 41 43 43 41 43 51 56 57 56 56 55 55 55 56 55 54 51 47 46 50 51 46 42 43 47 49 50 49 47 45 44 43 42 39 38 37 38
56 56 61 61 57 56 56 53 51 50 49 50 51 54 57 57 54 52 52 52 53 51 46 43 44 45 45 45 46 44 42 45 54 60 58 56 55 56 56 56 57 58 57 51 47 51 56 52 45 43 47 50 51 51 50 49 48 46 44 44 43 43 42
57 54 56 58 58 58 58 56 53 51 51 52 56 58 57 54 51 50 49 50 52 52 48 45 46 50 52 51 50 49 46 44 46 53 58 59 61 62 61 58 55 56 59 58 53 53 59 60 53 47 47 49 51 53 54 53 51 49 49 50 49 47 46
58 56 55 56 57 58 58 56 55 53 51 53 58 59 57 55 52 49 49 50 49 50 50 47 45 48 52 52 52 53 53 50 46 45 49 54 58 62 65 65 60 56 56 60 62 61 62 65 63 57 53 53 56 58 57 55 53 53 54 55 53 50 49
60 59 58 56 56 56 54 52 53 53 53 55 57 58 57 56 52 50 49 48 45 46 48 48 46 47 49 51 53 53 54 53 51 47 46 47 49 52 57 60 61 59 55 55 61 66 67 69 69 67 64 63 63 62 59 56 55 57 57 57 57 55 53
62 61 59 57 54 52 50 49 50 50 50 51 53 54 54 53 50 46 45 44 43 43 46 48 48 48 49 51 52 53 52 51 51 50 50 49 48 50 51 53 57 58 56 54 57 62 66 70 72 71 72 71 68 66 64 60 58 61 63 62 61 61 59
59 59 59 58 54 49 46 48 49 48 48 50 50 48 47 47 47 45 41 41 42 44 46 47 48 49 50 49 49 50 50 50 50 52 53 52 49 49 50 53 55 57 57 56 57 60 64 68 70 72 74 75 72 71 71 69 66 66 67 67 67 66 63
54 55 57 57 52 45 41 45 49 50 50 53 53 49 45 43 43 44 43 42 42 44 46 47 46 48 50 50 49 50 50 49 49 52 55 55 52 49 50 52 54 56 57 56 57 61 67 69 69 71 73 72 70 70 71 72 72 71 69 68 69 65 59
53 55 58 57 51 42 36 41 49 52 53 53 53 51 48 44 41 41 43 43 42 43 44 46 47 47 48 50 51 52 51 50 49 51 54 55 53 52 52 51 52 54 56 56 55 57 62 65 67 70 72 70 68 67 67 68 70 73 72 69 66 59 51
54 57 59 59 57 51 42 40 45 51 53 52 50 49 48 46 43 40 40 41 42 43 43 45 46 47 47 49 51 52 52 51 50 50 52 53 54 54 53 52 52 52 54 55 54 52 55 58 62 66 70 70 68 68 68 66 63 67 69 66 63 54 42
57 58 60 62 62 60 55 49 46 48 51 50 48 48 47 46 45 42 39 38 40 42 44 44 45 45 46 48 49 50 50 50 50 49 49 51 53 54 54 54 54 53 52 53 53 54 57 59 60 61 63 66 67 68 67 61 56 58 57 53 52 47 37
61 58 60 61 57 57 60 56 47 46 51 53 50 47 44 44 44 43 40 39 40 41 43 45 45 45 46 47 48 48 47 47 47 48 49 50 51 52 52 53 53 52 51 51 52 55 59 60 60 60 60 62 64 63 58 48 44 46 43 36 35 36 34
66 63 63 60 50 44 49 51 45 41 45 51 52 48 42 40 41 40 39 40 41 43 45 46 46 45 46 47 48 48 47 47 47 46 46 48 49 50 51 52 54 56 55 54 55 57 59 60 63 62 58 57 56 51 46 40 35 33 29 25 26 30 32
67 68 68 66 55 42 37 39 40 40 39 43 48 49 45 42 41 40 38 39 41 44 45 46 45 44 44 46 47 47 46 46 45 43 42 42 44 46 47 49 52 57 59 56 52 50 50 52 51 44 37 39 40 36 33 30 25 22 21 22 25 28 30
Wind_Direction
243 242 234 229 233 234 233 236 238 246 242 229 227 229 229 230 236 239 236 230 232 241 244 239 236 246 257 264 266 267 263 253 244 242 238 228 229 239 248 251 251 252 252 249 248 249 251 249 248 250 254 257 258 257 255 252 250 250 251 252 251 250 250
241 243 239 230 231 233 233 236 242 244 234 226 226 231 229 228 236 242 237 229 228 234 241 242 235 237 245 252 258 265 266 257 248 243 235 227 232 241 247 248 249 252 252 253 254 254 251 247 243 244 251 255 255 254 253 251 249 248 249 251 252 252 252
238 237 239 235 229 227 229 234 236 232 229 227 226 229 232 231 236 241 239 234 232 236 243 247 241 235 237 245 257 266 265 259 254 250 237 233 239 243 243 243 245 247 251 256 261 259 251 245 243 245 250 254 253 249 248 247 247 246 247 250 252 254 255
241 236 236 236 232 227 225 226 228 228 229 232 234 238 240 237 238 241 241 239 236 239 243 241 235 235 235 245 262 271 270 263 261 260 248 239 241 240 235 233 234 238 244 251 259 259 250 244 245 248 252 254 249 243 242 243 244 245 247 251 254 256 258
242 242 240 239 237 233 229 227 228 230 229 229 235 244 244 237 238 241 243 244 242 241 241 237 232 233 233 241 257 269 274 272 266 264 257 245 242 236 223 217 222 230 238 248 257 257 249 245 248 253 257 257 250 241 239 240 242 245 248 253 257 260 262
239 245 246 246 245 240 234 233 235 237 237 232 231 242 246 238 236 240 243 250 249 242 240 243 241 233 227 232 244 255 264 267 266 266 264 258 255 248 234 225 220 219 232 250 261 260 254 252 256 259 260 261 256 245 238 238 242 245 249 255 259 261 263
236 240 245 250 251 248 241 234 232 233 237 237 234 239 242 237 238 243 246 252 253 242 235 239 246 239 224 223 236 248 255 261 263 264 265 266 266 264 260 249 231 218 232 251 257 260 260 258 256 257 260 262 257 247 240 240 242 245 248 252 255 258 260
235 234 237 244 250 251 246 238 230 225 230 236 238 238 236 234 239 243 245 253 259 251 238 226 225 232 216 215 233 248 250 252 254 257 262 262 260 262 265 259 239 224 230 244 251 259 264 261 253 251 255 257 254 250 247 243 242 243 244 245 246 247 247
231 226 222 227 239 246 246 243 235 227 225 229 234 236 231 231 239 239 240 251 262 263 250 231 217 215 213 216 229 242 246 247 248 252 256 253 249 251 253 248 235 224 224 236 251 259 262 260 252 246 248 253 256 257 253 246 242 242 241 238 234 233 235
231 228 225 225 231 239 244 245 241 234 227 223 227 230 229 234 240 238 239 250 259 262 261 245 222 215 218 220 222 227 240 248 249 250 251 248 244 243 241 237 231 223 221 234 247 253 257 258 249 243 245 250 254 256 251 248 247 244 241 235 224 227 230
237 236 235 229 227 235 245 248 248 245 237 230 227 227 232 239 240 237 242 252 255 251 254 257 238 222 221 222 218 218 229 244 250 250 249 247 245 244 240 238 234 225 223 233 238 242 252 255 248 242 243 246 249 250 249 249 250 249 244 234 220 223 225
242 239 235 227 221 229 241 247 251 252 248 241 234 230 234 238 235 236 244 247 248 244 235 241 247 233 227 229 222 217 223 235 244 245 243 240 240 243 243 239 235 228 226 233 236 240 248 253 250 244 243 245 245 246 248 251 253 254 249 235 219 219 219
242 238 234 227 222 224 232 241 246 249 249 247 241 239 240 237 234 240 245 239 240 242 228 224 233 230 229 235 232 224 224 230 235 236 234 230 232 238 240 235 229 227 230 235 239 244 248 252 252 247 245 246 245 246 250 254 257 257 252 238 220 218 215
241 237 231 227 223 219 221 234 241 243 246 248 246 243 243 241 239 242 242 236 237 240 234 229 227 221 219 228 234 230 225 227 231 231 226 221 226 233 237 239 237 235 237 240 242 246 250 252 253 253 252 251 250 251 254 257 260 261 257 242 221 217 212
238 238 232 226 223 217 212 221 236 240 242 244 246 245 240 237 239 240 238 235 234 235 235 232 224 215 212 217 226 227 224 224 226 226 223 219 221 226 230 236 242 240 239 241 243 247 250 252 254 256 255 254 253 253 253 256 262 265 260 246 225 216 210
229 236 233 226 223 215 207 210 223 235 240 238 239 246 245 239 237 237 236 235 234 231 231 231 228 220 213 214 224 228 225 224 223 223 225 223 220 221 223 227 233 237 239 242 244 246 248 250 251 251 252 255 256 254 254 256 260 263 261 251 231 216 211
223 226 227 226 222 213 212 216 214 215 227 231 229 238 249 250 244 237 234 236 237 232 228 230 233 231 223 218 224 230 230 227 224 224 230 233 229 227 225 225 229 232 235 239 241 243 246 247 247 248 250 254 257 256 255 256 258 260 260 254 240 223 216
218 216 211 217 221 220 226 227 216 206 212 221 221 223 232 244 249 246 240 238 238 237 235 232 233 236 234 227 224 229 233 234 231 228 230 234 236 237 235 233 236 237 237 237 238 241 246 247 244 245 248 250 252 253 254 255 257 259 258 256 251 236 223
214 211 205 207 212 219 228 227 216 214 216 214 216 221 222 228 237 243 245 245 242 241 241 239 233 232 234 233 229 227 230 234 237 235 232 229 229 231 235 239 241 241 242 242 241 246 251 248 241 239 242 244 245 248 251 255 258 261 259 257 256 249 235
210 208 207 208 210 213 218 218 214 218 219 213 210 213 218 222 222 225 234 239 238 237 235 235 234 231 231 234 234 230 228 230 235 238 238 233 227 223 225 230 234 238 241 243 244 247 249 248 243 240 241 242 243 244 248 254 257 260 260 257 255 254 245
210 207 207 211 211 209 210 214 214 215 215 214 211 209 212 216 212 211 220 226 229 233 231 226 227 230 230 231 234 234 232 229 230 234 237 235 231 228 229 230 230 232 236 240 244 246 247 246 244 242 241 241 243 244 246 251 254 256 257 258 256 254 250
210 209 208 210 212 212 213 214 215 217 216 214 212 211 212 212 209 208 213 218 222 229 232 228 226 230 233 233 233 234 232 228 227 229 232 233 232 233 235 235 234 233 235 238 240 244 246 244 240 240 241 241 243 245 247 248 251 253 255 258 258 256 252
208 209 207 207 212 216 215 212 214 218 218 217 217 215 215 215 214 213 214 217 220 225 230 234 235 235 238 240 240 237 231 227 226 228 231 232 232 232 233 235 237 238 239 241 241 241 243 243 242 241 240 240 242 245 247 247 250 253 255 257 258 257 253
206 207 206 206 211 216 216 215 217 219 220 223 224 223 222 222 221 219 222 225 228 230 232 233 234 235 237 240 243 241 233 226 225 228 230 232 233 233 232 233 235 236 239 243 246 244 242 240 240 240 238 237 240 243 245 247 250 253 255 256 255 254 251
205 206 207 208 212 218 221 222 223 221 222 226 227 227 229 230 228 226 230 234 235 235 234 231 229 230 233 236 239 242 239 230 225 226 228 231 234 235 235 235 236 236 236 237 241 245 243 239 235 235 235 235 238 242 245 248 250 252 252 252 251 250 248
203 204 205 208 212 217 222 224 224 223 223 225 227 229 231 232 232 231 232 235 236 235 235 236 232 228 231 235 236 238 240 239 233 228 228 230 233 235 236 236 235 236 238 237 237 241 245 244 239 235 234 238 243 245 246 248 249 249 249 249 248 248 248
202 204 205 208 211 216 220 223 224 225 225 226 229 232 233 234 236 236 233 233 234 233 234 237 236 231 233 236 236 237 238 240 239 236 232 231 231 233 237 238 236 235 238 240 239 240 245 248 247 243 239 240 242 242 242 244 245 244 246 248 248 248 248
202 205 206 207 210 215 220 224 224 225 226 228 230 233 234 234 236 237 235 232 232 234 234 234 234 233 234 236 237 237 236 237 239 240 238 236 233 232 234 236 233 232 235 239 242 242 244 246 249 247 243 239 237 235 236 239 241 241 242 245 247 247 246
203 205 206 206 207 210 215 219 220 220 222 226 228 231 233 233 234 236 235 232 231 232 233 232 231 232 234 236 236 236 235 236 239 240 240 240 237 235 235 235 232 230 231 236 240 243 246 247 249 250 249 245 240 235 233 235 240 240 238 239 242 244 243
204 205 207 208 207 210 215 218 219 220 223 225 226 227 229 231 233 234 234 232 230 229 230 231 231 233 235 237 237 237 236 237 238 239 240 240 239 239 239 238 236 233 233 234 237 240 244 247 249 251 251 251 249 246 242 241 241 240 237 235 238 240 239
204 204 207 208 208 214 223 224 221 224 227 227 226 227 228 230 232 232 231 232 231 230 232 234 235 236 238 239 239 240 240 239 238 238 238 239 241 244 242 239 239 240 240 241 242 243 243 245 249 251 252 252 252 252 252 250 244 239 237 236 237 240 239
205 204 207 208 208 215 228 231 226 225 228 229 227 226 226 229 231 231 230 231 231 230 232 235 237 238 240 241 242 243 243 243 242 240 240 242 246 249 249 246 245 246 247 248 251 251 249 250 254 256 255 253 251 252 258 260 250 238 234 234 236 241 243
207 206 208 211 211 215 226 236 233 226 225 229 229 226 225 226 227 229 230 230 229 229 232 235 236 238 240 242 244 246 246 247 247 245 244 246 249 253 255 255 255 255 253 252 252 254 255 257 260 261 259 256 253 253 260 264 252 236 231 230 231 237 240
209 210 213 214 216 220 227 238 242 234 230 231 229 226 225 224 223 225 228 229 228 229 232 235 237 239 240 242 244 247 248 250 251 252 251 251 252 254 256 258 258 259 258 256 253 251 254 258 262 261 258 255 254 255 260 260 247 232 228 225 222 226 231
210 213 216 217 222 229 232 237 244 244 239 235 230 225 224 224 224 225 228 230 230 231 234 236 238 239 240 242 244 247 250 253 254 255 255 254 254 256 256 258 258 256 256 257 254 250 251 254 257 257 256 253 253 256 257 251 233 220 217 213 207 213 223
212 216 219 219 223 231 232 233 240 247 243 238 234 230 228 229 229 229 230 230 232 234 236 238 240 242 243 244 245 247 251 254 255 256 257 257 257 257 258 260 261 258 258 259 255 251 251 252 254 257 256 250 247 247 242 230 214 205 205 207 208 215 225
214 218 222 223 221 221 223 227 235 244 247 243 238 237 237 237 235 234 234 234 235 237 239 241 242 244 245 247 248 249 253 256 257 257 258 257 257 257 260 264 265 260 257 258 255 251 250 248 248 251 246 233 229 229 224 215 206 203 210 218 223 229 236